Location: Newark
(45.9456°N, 15.4064°E)
Time: 15:19:29
(UTC+00:00)

SR - Pass Details

Date: 29 January 2020
Orbit: 575 x 880 km, 66.7° (Epoch: 26 February)

Event Time Altitude Azimuth Distance (km) Brightness Sun altitude
Rises 04:29:15 0° 328° (NNW) 3,411 - -20.1°
Reaches altitude 10° 04:31:51 10° 332° (NNW) 2,437 - -19.7°
Exits shadow 04:32:43 15° 334° (NNW) 2,118 ? -19.5°
Maximum altitude 04:37:24 60° 52° (NE) 896 ? -18.7°
Drops below altitude 10° 04:42:28 10° 133° (SE) 2,230 ? -17.8°
Sets 04:44:45 0° 137° (SE) 3,098 ? -17.4°
